ATLAS 5 CENTAUR DEB, 43954

Orbit data source: Space-Track

ATLAS 5 CENTAUR DEB, 43954 is space debris in HEO originally from a launch on Wed, 17 Sep 2014 UTC launched from the Air Force Eastern Test Range (AFETR). Debris objects in space refer to the collection of defunct objects orbiting the Earth. Examples of debris include non-operational satellites, rocket bodies, and fragments generated from explosions, collisions, or faulty payload assembly.

Loading next visibility...
Identifier
43954, 2014-055H
Orbit
HEO
Country
Flag of USUS
Related business
Flag of USUnited Launch Alliance/Lockheed Martin (US)
Manufacturer
Unknown
Mission
Spacecraft
Bus & Motor
Unknown
Mass
Unknown
Launch date (UTC)
2014-09-17 (11 years ago)
Launch vehicle
Unknown
Launch site
Air Force Eastern Test Range (AFETR)
Object type
Payload
Rocket body
Debris
Shape & HBR
Unknown shape, 1.1 m
Radar Cross Section
Small (<0.1 m²)

Expand to show TLE details & history
Last TLE update: 16 hours ago

TLE from 16 hours ago
0 ATLAS 5 CENTAUR DEB
1 43954U 14055H   26035.17255132 -.00000110  00000-0  00000+0 0  9994
2 43954  20.4024 139.8325 4857672 174.2699 194.4061  1.89367689 51320
Epoch: 2026-02-04T04:08Z
TLE epoch observation values (Epoch: 2026-02-04T04:08:28.434Z)
Latitude
0.00001°
Longitude
-56.64872°
Altitude
34,456.49 km
Speed
2.254 km/s
True Right ascension
09h 19m 15s
True Declination
0° 00' 00"
Sunlit
Object was in daylight at epoch
Visualization orbit readout
Latitude
Unknown
Longitude
Unknown
Altitude
Unknown
Speed
Unknown
Apparent Right ascension
Unknown
Apparent Declination
Unknown
Sunlit
N/A
Visualization observer readout
Local Sidereal Time
21:39:44
Azimuth
Unknown
Elevation
Unknown
Doppler factor
Unknown
Orbital elements
Apogee altitude
34,627.765 km
Perigee altitude
7,814.248 km
Semi-major axis
27,599.144 km
Eccentricity
0.48577
Inclination
20.4024°
RAAN
139.8325°
Arg. of periapsis
174.2699°
True anomaly
185.72216°
Mean anomaly
194.4061°
Eccentric anomaly
189.71125°
Mean motion
0.47337 °/min
Orbital period
760.51 mins
BSTAR
0
Loading maneuver chart data...
Computing Atmospheric mass density...

Documentation

Showing up to 5 results
|